Location: Staunton
(38.1490°N, 79.0720°W)
Time: 21:50:19
(UTC-04:00)

ISS - Visible Passes

Search period start: 16 May 2021 00:00
Search period end: 26 May 2021 00:00
Orbit: 417 x 422 km, 51.6° (Epoch: 16 May)

Date Brightness Start Highest point End Pass type
(mag) Time Alt. Az. Time Alt. Az. Time Alt. Az.
16 May -1.1 03:08:27 10° NNW 03:11:06 21° NNE 03:13:44 10° ENE visible
16 May -3.7 04:44:48 10° WNW 04:48:06 53° SW 04:51:24 10° SE visible
16 May -3.3 21:26:43 10° WSW 21:30:03 64° NW 21:33:24 10° NE visible
16 May -0.4 23:05:35 10° NW 23:07:24 14° NNW 23:09:13 10° NNE visible
17 May -0.4 02:21:20 10° NNW 02:26:37 - ENE 02:21:39 11° NNW visible
17 May -3.8 04:00:12 62° NW 04:00:41 84° NE 04:04:03 10° SE visible
17 May -0.7 22:17:19 10° WNW 22:19:43 18° NNW 22:22:07 10° NNE visible
18 May -0.2 01:34:18 10° N 01:34:27 10° N 01:34:27 10° N visible
18 May -1.3 21:29:15 10° W 21:32:05 25° NNW 21:34:56 10° NNE visible
19 May -0.2 00:47:50 10° N 00:47:59 10° NNE 00:48:08 10° NNE visible
19 May -0.4 22:21:05 10° NNW 22:22:05 11° NNW 22:23:06 10° N visible
20 May -0.6 21:32:32 10° NW 21:34:21 14° NNW 21:36:09 10° NNE visible
21 May -0.3 00:48:16 10° NNW 00:48:49 12° N 00:48:49 12° N visible
22 May -0.6 00:01:14 10° N 00:02:41 12° NNE 00:02:47 12° NNE visible
22 May -0.5 23:14:45 10° N 23:14:55 10° NNE 23:15:04 10° NNE visible
23 May -0.3 00:49:33 10° NNW 00:49:42 11° NNW 00:49:42 11° NNW visible
24 May -0.8 00:02:19 10° NNW 00:03:42 17° N 00:03:42 17° N visible
24 May -1.1 23:15:10 10° NNW 23:17:17 16° NNE 23:17:45 15° NNE visible
25 May -0.9 22:28:07 10° N 22:29:34 12° NNE 22:31:00 10° NE visible
